Dawson, Yukon Territory

6:04 AM PST on February 22, 2017 (GMT -0800)
Dawson

Weather History for CYDA - October, 2013

Change the Weather History Date:

Monday, October 14, 2013

  Actual Average Record
Temperature  
Mean Temperature 33 °F -  
Max Temperature 37 °F 17 °F 42 °F (2000)
Min Temperature 29 °F 9 °F -4 °F (1997)
Degree Days  
Heating Degree Days 32    
Moisture  
Dew Point 32 °F    
Average Humidity 96    
Maximum Humidity 100    
Minimum Humidity 85    
Precipitation  
Precipitation 0.00 in - - ()
Sea Level Pressure  
Sea Level Pressure 29.92 in    
Wind  
Wind Speed 2 mph ()    
Max Wind Speed 5 mph    
Max Gust Speed -    
Visibility 1.2 miles    
Events Fog    
Averages and records for this station are not official NWS values.
T = Trace of Precipitation, MM = Missing Value Source: Averaged Metar Reports

Daily Weather History Graph

Daily Weather History Graph

Search for Another Location

Airport or City:

Trip Planner

Search our weather history database for the weather conditions in past years. The results will help you decide how hot, cold, wet, or windy it might be!

Date:

Astronomy

Oct. 14, 2013 Rise Set
Actual Time 9:04 AM PDT 6:58 PM PDT
Civil Twilight 8:16 AM PDT 7:46 PM PDT
Nautical Twilight 7:21 AM PDT 8:41 PM PDT
Astronomical Twilight 6:24 AM PDT 9:37 PM PDT
Moon 5:44 PM PDT (10/14) 3:04 AM PDT (10/14)
Length of Visible Light 11h 30m
Length of Day
9h 53m
Waxing Gibbous, 80% of the Moon is Illuminated
Oct 14
Waxing Gibbous
Oct 18
Full
Oct 26
Last Quarter
Nov 3
New
Nov 9
First Quarter

Hourly Weather History & Observations

Time (PDT) Temp. Windchill Dew Point Humidity Pressure Visibility Wind Dir Wind Speed Gust Speed Precip Events Conditions
2:00 AM 36 °F - 33 °F 87% 29.75 in - North 2.3 mph - -  
5:00 AM 32 °F - 31 °F 92% 29.83 in - East 3.5 mph - -  
7:00 AM 32.0 °F - 32.0 °F 100% 29.86 in 0.5 mi Calm Calm - N/A Fog Fog
8:00 AM 32 °F - 31 °F 96% 29.88 in - East 2.3 mph - -  
8:00 AM 32.0 °F - 32.0 °F 100% 29.88 in 0.1 mi ENE 2.3 mph - N/A Fog Fog
9:00 AM 32.0 °F 28.7 °F 32.0 °F 100% 29.90 in 0.5 mi WSW 3.5 mph - N/A Fog Light Drizzle
10:00 AM 32.0 °F - 32.0 °F 100% 29.92 in 0.8 mi SW 2.3 mph - N/A   Mist
10:26 AM 32.0 °F - 32.0 °F 100% 29.92 in 1.0 mi Calm Calm - N/A   Mist
11:00 AM 32 °F - 31 °F 96% 29.93 in - ENE 2.3 mph - -  
11:00 AM 32.0 °F - 32.0 °F 100% 29.93 in 1.0 mi Variable 2.3 mph - N/A   Mist
12:00 PM 32.0 °F - 32.0 °F 100% 29.94 in 1.0 mi Variable 2.3 mph - N/A   Mist
1:00 PM 32.0 °F 27.5 °F 32.0 °F 100% 29.94 in 1.5 mi ENE 4.6 mph - N/A   Mist
1:19 PM 33.8 °F 30.8 °F 32.0 °F 93% 29.94 in 1.8 mi East 3.5 mph - N/A   Mist
2:00 PM 33 °F - 32 °F 95% 29.94 in - East 1.2 mph - -  
2:00 PM 33.8 °F - 32.0 °F 93% 29.94 in 1.8 mi Calm Calm - N/A   Overcast
3:00 PM 35.6 °F - 33.8 °F 93% 29.94 in 2.0 mi Calm Calm - N/A Fog Overcast
4:00 PM 35.6 °F - 33.8 °F 93% 29.94 in 2.0 mi NNE 2.3 mph - N/A Fog Overcast
5:00 PM 36 °F - 33 °F 85% 29.94 in - WSW 3.5 mph - -  
8:00 PM 33 °F - 32 °F 94% 29.99 in - Calm Calm - -  
11:00 PM 30 °F - 30 °F 98% 30.04 in - SSE 1.2 mph - -